Location: White Mills Observatory
(37.5374°N, 86.0303°W)
Time: 02:20:47
(UTC-04:00)

Amateur Radio Satellites - All Passes

Search period start: 26 April 2015 01:50
Search period end: 27 April 2015 01:50
Location: White Mills Observatory, 37.5374°N, 86.0303°W

Satellite Date Start Highest point End Downlink Frequencies (MHz)
Time Altitude Azimuth
QB50P2 26 Apr 01:52:37 01:55:49 20° 291° (WNW) 01:58:53 145.880/145.840
ITUPSAT 1 26 Apr 01:52:55 01:56:57 28° 69° (ENE) 02:01:04 437.325
NANOSAT C BR1 26 Apr 02:11:33 02:13:42 13° 293° (WNW) 02:15:38 145.865
SPROUT 26 Apr 02:14:22 02:17:28 19° 267° (W) 02:20:28 437.525
POPSAT HIP 1 26 Apr 02:15:08 02:16:58 12° 294° (WNW) 02:18:36 437.405
Cosmos 2491 26 Apr 02:18:56 02:23:27 14° 301° (WNW) 02:27:19 435.465 / 435.565
BEESAT 26 Apr 02:22:50 02:27:32 60° 74° (ENE) 02:32:15 436.000
SWISSCUBE 26 Apr 02:25:20 02:30:05 69° 75° (ENE) 02:34:52 437.505
Oscar 19 26 Apr 02:28:38 02:32:58 27° 95° (E) 02:37:25 437.125/150
Cosmos 2504 26 Apr 02:57:20 03:04:30 38° 273° (W) 03:11:08 435.465 / 435.565
GONETS M04 26 Apr 02:58:30 03:02:24 14° 59° (ENE) 03:06:57
JUGNU 26 Apr 03:02:02 03:04:35 13° 175° (S) 03:07:09 437.505
BEESAT 3 26 Apr 03:03:14 03:06:50 32° 114° (ESE) 03:10:32 437.485
ITAMSAT 1 26 Apr 03:04:38 03:07:55 17° 91° (E) 03:11:25 435.822/435.867
BEESAT 2 26 Apr 03:05:08 03:08:36 27° 113° (ESE) 03:12:10 435.950
STARS 26 Apr 03:09:28 03:12:34 20° 68° (ENE) 03:15:49 437.465
AIST 1 26 Apr 03:11:22 03:12:41 11° 291° (WNW) 03:13:46
ITUPSAT 1 26 Apr 03:30:42 03:34:48 27° 265° (W) 03:38:50 437.325
Gurwin Techsat 1B 26 Apr 03:35:03 03:39:43 31° 96° (E) 03:44:26 435.225
KKS-1 26 Apr 03:50:28 03:54:54 88° 256° (WSW) 03:59:23 437.445
BEESAT 26 Apr 04:03:38 04:05:50 13° 270° (W) 04:07:47 436.000
AIST 2 26 Apr 04:06:58 04:10:56 41° 115° (ESE) 04:14:59 435.215
SWISSCUBE 26 Apr 04:07:18 04:08:32 11° 272° (W) 04:09:25 437.505
Oscar 19 26 Apr 04:07:43 04:12:22 33° 290° (WNW) 04:16:55 437.125/150
CUSAT 1 26 Apr 04:11:40 04:18:12 30° 71° (ENE) 04:25:24 437.405
MOZHAYETS 4 26 Apr 04:22:24 04:24:17 13° 66° (ENE) 04:26:26
HORYU 2 26 Apr 04:29:31 04:32:38 19° 93° (E) 04:35:54 437.375
BEESAT 3 26 Apr 04:41:39 04:44:55 22° 311° (NW) 04:48:08 437.485
ITAMSAT 1 26 Apr 04:42:46 04:47:46 50° 288° (WNW) 04:52:45 435.822/435.867
BEESAT 2 26 Apr 04:43:13 04:46:42 25° 310° (NW) 04:50:09 435.950
STARS 26 Apr 04:44:50 04:48:49 34° 263° (W) 04:52:49 437.465
JUGNU 26 Apr 04:50:19 04:52:46 13° 186° (S) 04:55:11 437.505
GONETS M04 26 Apr 04:52:12 05:01:06 77° 81° (E) 05:09:55
DANDE 26 Apr 04:52:34 04:59:49 47° 76° (ENE) 05:08:01 436.750
SRMSAT 26 Apr 05:00:23 05:03:02 13° 177° (S) 05:05:42 437.500
AO-7 26 Apr 05:07:03 05:14:33 37° 97° (E) 05:22:11 29.400- 29.500
Gurwin Techsat 1B 26 Apr 05:15:02 05:19:39 30° 291° (WNW) 05:24:10 435.225
Cosmos 2499 26 Apr 05:25:16 05:30:15 19° 64° (ENE) 05:35:23 435.465 / 435.565
JAS-2 26 Apr 05:39:09 05:45:23 65° 100° (E) 05:50:54 435.910
AIST 2 26 Apr 05:46:32 05:49:43 20° 313° (NW) 05:52:50 435.215
CUSAT 1 26 Apr 05:53:40 06:01:17 59° 266° (W) 06:09:24 437.405
MOZHAYETS 4 26 Apr 05:56:27 06:01:04 62° 260° (W) 06:05:41
AUBIESAT-1 26 Apr 05:56:36 05:59:38 17° 62° (ENE) 06:02:50 437.475
CUBESAT XI-V 26 Apr 06:01:13 06:01:56 10° 65° (ENE) 06:02:56 437.345
HORYU 2 26 Apr 06:05:18 06:09:26 35° 288° (WNW) 06:13:29 437.375
DANDE 26 Apr 06:36:00 06:43:01 38° 268° (W) 06:50:34 436.750
M-CUBED/EXP-1 PRIME 26 Apr 06:47:18 06:52:01 63° 70° (ENE) 06:56:50 437.505
SRMSAT 26 Apr 06:49:13 06:51:22 12° 187° (S) 06:53:29 437.500
GONETS M04 26 Apr 06:51:00 06:57:06 20° 278° (W) 07:02:43
AO-7 26 Apr 06:59:38 07:07:29 46° 295° (WNW) 07:15:15 29.400- 29.500
Cosmos 2499 26 Apr 07:16:44 07:24:27 72° 266° (W) 07:31:36 435.465 / 435.565
JAS-2 26 Apr 07:25:41 07:29:48 18° 299° (WNW) 07:33:23 435.910
AUBIESAT-1 26 Apr 07:29:22 07:34:01 53° 256° (WSW) 07:38:44 437.475
CUBESAT XI-V 26 Apr 07:34:12 07:38:50 75° 258° (WSW) 07:43:28 437.345
CUTE-I 26 Apr 07:35:37 07:40:35 40° 98° (E) 07:45:36 437.470
Cubesat XI-IV 26 Apr 07:45:16 07:50:26 51° 99° (E) 07:55:37 437.490
STRAND 1 26 Apr 07:51:53 07:56:59 79° 74° (ENE) 08:02:06 437.568
PRISM 26 Apr 07:54:34 07:58:42 66° 258° (WSW) 08:02:51 437.425
M-CUBED/EXP-1 PRIME 26 Apr 08:24:50 08:27:18 13° 266° (W) 08:29:31 437.505
O/OREOS (USA 219) 26 Apr 08:47:11 08:51:20 36° 63° (ENE) 08:55:29 437.305
GOMX 1 26 Apr 08:52:52 08:54:09 11° 88° (E) 08:55:50 467.674
BRITE-PL 26 Apr 09:05:38 09:09:49 25° 94° (E) 09:14:18 437.365/2234.400
PCSat 26 Apr 09:12:36 09:18:00 81° 117° (ESE) 09:23:28 145.827
CUTE-I 26 Apr 09:16:15 09:20:28 24° 293° (WNW) 09:24:34 437.470
DOVE 4 26 Apr 09:25:12 09:28:19 17° 90° (E) 09:31:43 437.250
Cubesat XI-IV 26 Apr 09:26:25 09:30:12 19° 294° (WNW) 09:33:48 437.490
SEEDS 26 Apr 09:30:06 09:31:39 12° 89° (E) 09:33:27 437.485
STRAND 1 26 Apr 09:36:06 09:36:53 10° 272° (W) 09:37:16 437.568
CANX-2 26 Apr 09:38:07 09:41:21 21° 93° (E) 09:44:39 2200.000
AAUSAT CUBESAT 2 26 Apr 09:45:42 09:47:23 12° 90° (E) 09:49:18 437.432
CUTE 1.7 + AOD 2 26 Apr 09:46:59 09:50:26 24° 94° (E) 09:53:56 437.475
HO-68 26 Apr 10:02:23 10:09:13 46° 99° (E) 10:16:03 435.675
CINEMA 3 26 Apr 10:04:54 10:08:32 21° 92° (E) 10:12:21 145.822/145.860
UWE-3 26 Apr 10:26:16 10:28:21 13° 89° (E) 10:30:42 435.000/436.395/437.385
O/OREOS (USA 219) 26 Apr 10:27:22 10:30:30 18° 258° (WSW) 10:33:27 437.305
GOMX 1 26 Apr 10:27:38 10:32:50 81° 284° (WNW) 10:38:17 467.674
Cosmos 2491 26 Apr 10:28:58 10:37:25 49° 76° (ENE) 10:45:55 435.465 / 435.565
FUNcube-1 26 Apr 10:34:32 10:36:12 12° 89° (E) 10:38:08 145.935
COMPASS 1 26 Apr 10:37:06 10:41:17 63° 100° (E) 10:45:25 437.405
ANTELSAT 26 Apr 10:41:52 10:45:20 23° 69° (ENE) 10:48:59 437.575/2403.000
BRITE-PL 26 Apr 10:43:37 10:48:23 38° 287° (WNW) 10:53:24 437.365/2234.400
DELFI C3 26 Apr 10:51:04 10:54:20 24° 95° (E) 10:57:38 145.870
Oscar 11 26 Apr 10:56:06 11:00:11 39° 98° (E) 11:04:14 145.826/435.025
ZACube-1 26 Apr 10:58:33 11:02:13 24° 93° (E) 11:05:57 437.345
PCSat 26 Apr 10:58:53 11:02:10 16° 315° (NW) 11:05:17 145.827
DOVE 4 26 Apr 11:01:21 11:06:24 56° 286° (WNW) 11:11:34 437.250
SEEDS 26 Apr 11:03:42 11:07:49 49° 286° (WNW) 11:11:52 437.485
QB50P2 26 Apr 11:08:06 11:11:06 20° 69° (ENE) 11:14:12 145.880/145.840
CANX-2 26 Apr 11:13:35 11:17:18 29° 289° (WNW) 11:20:56 2200.000
AAUSAT CUBESAT 2 26 Apr 11:19:19 11:23:20 46° 286° (WNW) 11:27:19 437.432
SO-50 26 Apr 11:20:17 11:23:08 17° 110° (ESE) 11:26:12 436.795
CUTE 1.7 + AOD 2 26 Apr 11:22:45 11:26:19 25° 289° (WNW) 11:29:46 437.475
AISAT 26 Apr 11:24:49 11:26:07 11° 89° (E) 11:27:42 437.250
BEESAT 3 26 Apr 11:24:49 11:26:48 13° 44° (NE) 11:28:55 437.485
NANOSAT C BR1 26 Apr 11:25:05 11:28:41 29° 71° (ENE) 11:32:23 145.865
BEESAT 2 26 Apr 11:27:22 11:28:57 12° 43° (NE) 11:30:42 435.950
POPSAT HIP 1 26 Apr 11:28:28 11:32:10 32° 72° (ENE) 11:35:58 437.405
TIGRISAT 26 Apr 11:30:36 11:35:05 74° 76° (ENE) 11:39:43 435.000
DX 1 26 Apr 11:30:59 11:34:47 29° 96° (E) 11:38:39 434.975-435.025
YUBILEINY 26 Apr 11:31:21 11:39:51 57° 91° (E) 11:48:26 435.215
UNISAT 6 26 Apr 11:35:12 11:39:42 86° 77° (ENE) 11:44:22 437.425
50 SAT 26 Apr 11:35:25 11:37:43 15° 92° (E) 11:40:09 437.505
CUBEBUG 2 26 Apr 11:35:48 11:40:37 85° 286° (WNW) 11:45:23 437.445
CINEMA 3 26 Apr 11:41:12 11:45:54 41° 288° (WNW) 11:50:35 145.822/145.860
AIST 1 26 Apr 11:41:53 11:43:01 11° 69° (ENE) 11:44:25
BUGSAT 1 26 Apr 11:49:33 11:53:14 37° 73° (ENE) 11:56:59 437.445
HO-68 26 Apr 11:50:29 11:56:46 33° 295° (WNW) 12:02:52 435.675
POLYITAN 1 26 Apr 11:57:59 12:02:11 75° 77° (ENE) 12:06:26 437.675
DUCHIFAT 1 26 Apr 11:58:11 12:02:20 72° 77° (ENE) 12:06:33 145.980
UWE-3 26 Apr 12:00:41 12:05:18 56° 286° (WNW) 12:09:52 435.000/436.395/437.385
ESTCUBE 1 26 Apr 12:04:42 12:07:37 17° 92° (E) 12:10:41 437.505/2401.250
FUNcube-1 26 Apr 12:08:27 12:12:59 58° 285° (WNW) 12:17:28 145.935
UKube-1 26 Apr 12:12:42 12:17:04 86° 103° (ESE) 12:21:24 .
COMPASS 1 26 Apr 12:15:45 12:16:30 10° 294° (WNW) 12:16:59 437.405
QB50P1 26 Apr 12:16:09 12:20:19 67° 259° (W) 12:24:32 145.935-145.965
ANTELSAT 26 Apr 12:17:54 12:21:58 32° 264° (W) 12:26:05 437.575/2403.000
HUMSAT D 26 Apr 12:23:36 12:27:58 80° 284° (WNW) 12:32:16 437.325/437.525
DELFI C3 26 Apr 12:26:10 12:29:24 23° 289° (WNW) 12:32:31 145.870
Cosmos 2491 26 Apr 12:26:20 12:34:03 34° 274° (W) 12:41:33 435.465 / 435.565
ISS 26 Apr 12:28:25 12:31:38 72° 138° (SE) 12:34:53 145.825
AIST 2 26 Apr 12:31:13 12:34:02 18° 46° (NE) 12:36:57 435.215
Oscar 11 26 Apr 12:33:12 12:36:06 17° 292° (WNW) 12:38:48 145.826/435.025
ZACube-1 26 Apr 12:34:33 12:38:36 30° 289° (WNW) 12:42:33 437.345
VELOX 1 26 Apr 12:40:30 12:44:58 84° 102° (ESE) 12:49:25 145.980
QB50P2 26 Apr 12:43:02 12:46:48 31° 264° (W) 12:50:35 145.880/145.840
CUBEBUG 1 26 Apr 12:43:56 12:48:05 42° 98° (E) 12:52:15 437.445
AISAT 26 Apr 12:58:45 13:03:09 58° 286° (WNW) 13:07:33 437.250
SO-50 26 Apr 12:58:46 13:03:17 50° 305° (NW) 13:07:57 436.795
BEESAT 3 26 Apr 13:01:13 13:05:16 62° 243° (WSW) 13:09:14 437.485
NANOSAT C BR1 26 Apr 13:01:24 13:04:35 20° 267° (W) 13:07:41 145.865
BEESAT 2 26 Apr 13:03:31 13:07:38 72° 242° (WSW) 13:11:39 435.950
POPSAT HIP 1 26 Apr 13:05:08 13:08:10 18° 267° (W) 13:11:04 437.405
DX 1 26 Apr 13:07:29 13:10:55 22° 291° (WNW) 13:14:13 434.975-435.025
50 SAT 26 Apr 13:08:58 13:12:42 35° 287° (WNW) 13:16:21 437.505
AIST 1 26 Apr 13:16:57 13:21:06 52° 266° (W) 13:25:16
BUGSAT 1 26 Apr 13:26:39 13:28:56 14° 268° (W) 13:31:03 437.445
TISAT 1 26 Apr 13:28:31 13:32:04 26° 95° (E) 13:35:41 437.305
YUBILEINY 26 Apr 13:29:39 13:37:13 30° 291° (WNW) 13:44:33 435.215
Cosmos 2504 26 Apr 13:38:25 13:46:08 37° 87° (E) 13:54:00 435.465 / 435.565
ESTCUBE 1 26 Apr 13:40:30 13:44:41 38° 288° (WNW) 13:48:49 437.505/2401.250
Oscar 19 26 Apr 13:43:34 13:48:06 33° 70° (ENE) 13:52:43 437.125/150
RS-15 26 Apr 13:55:53 14:04:19 29° 105° (ESE) 14:13:15 29.354- 29.394
SPROUT 26 Apr 14:01:26 14:05:47 86° 102° (ESE) 14:10:07 437.525
ISS 26 Apr 14:06:08 14:08:19 16° 335° (NNW) 14:10:29 145.825
AIST 2 26 Apr 14:08:51 14:12:54 45° 244° (WSW) 14:16:52 435.215
ITAMSAT 1 26 Apr 14:20:42 14:24:38 23° 67° (ENE) 14:28:42 435.822/435.867
CUBEBUG 1 26 Apr 14:21:23 14:24:09 16° 292° (WNW) 14:26:45 437.445
BEESAT 26 Apr 14:26:12 14:29:18 18° 92° (E) 14:32:34 436.000
SWISSCUBE 26 Apr 14:28:34 14:32:01 20° 93° (E) 14:35:38 437.505
Gurwin Techsat 1B 26 Apr 14:54:10 14:59:05 41° 71° (ENE) 15:04:04 435.225
TISAT 1 26 Apr 15:04:21 15:07:47 24° 290° (WNW) 15:11:08 437.305
Oscar 19 26 Apr 15:23:07 15:27:29 27° 265° (W) 15:31:48 437.125/150
HORYU 2 26 Apr 15:26:52 15:29:18 15° 66° (ENE) 15:31:57 437.375
Cosmos 2504 26 Apr 15:30:53 15:39:23 48° 284° (WNW) 15:47:45 435.465 / 435.565
ITUPSAT 1 26 Apr 15:32:21 15:37:09 89° 105° (ESE) 15:41:54 437.325
KKS-1 26 Apr 15:44:21 15:47:41 21° 93° (E) 15:51:08 437.445
JAS-2 26 Apr 15:47:41 15:54:03 29° 66° (ENE) 16:00:25 435.910
GONETS M04 26 Apr 15:58:28 16:03:07 17° 80° (E) 16:08:24
ITAMSAT 1 26 Apr 15:59:04 16:03:56 40° 262° (W) 16:08:46 435.822/435.867
BEESAT 26 Apr 16:02:53 16:07:24 42° 288° (WNW) 16:11:51 436.000
AO-7 26 Apr 16:03:56 16:11:32 44° 65° (ENE) 16:19:16 29.400- 29.500
RS-15 26 Apr 16:04:58 16:15:50 71° 304° (NW) 16:26:56 29.354- 29.394
SWISSCUBE 26 Apr 16:05:40 16:10:02 36° 289° (WNW) 16:14:21 437.505
Gurwin Techsat 1B 26 Apr 16:35:05 16:39:15 22° 267° (W) 16:43:17 435.225
STARS 26 Apr 16:36:04 16:40:23 49° 99° (E) 16:44:43 437.465
VERMONT LUNAR 26 Apr 16:56:22 16:59:31 38° 153° (SSE) 17:02:41 437.305
HORYU 2 26 Apr 17:01:14 17:05:35 49° 261° (W) 17:09:58 437.375
KKS-1 26 Apr 17:20:22 17:24:25 32° 289° (WNW) 17:28:23 437.445
CUSAT 1 26 Apr 17:20:26 17:22:40 16° 84° (E) 17:25:25 437.405
ISS 26 Apr 17:23:28 17:23:28 10° 16° (NNE) 17:23:31 145.825
JAS-2 26 Apr 17:30:55 17:38:40 60° 261° (W) 17:46:14 435.910
PHONESAT 2.4 26 Apr 17:34:09 17:37:14 28° 150° (SSE) 17:40:21 2401.200-2431.200
GONETS M04 26 Apr 17:50:10 17:58:57 88° 279° (W) 18:07:50
MOZHAYETS 4 26 Apr 17:53:49 17:58:01 35° 97° (E) 18:02:13
AO-7 26 Apr 17:56:45 18:04:24 40° 262° (W) 18:12:00 29.400- 29.500
Cosmos 2499 26 Apr 17:59:45 18:04:57 18° 82° (E) 18:10:38 435.465 / 435.565
PCSat 26 Apr 18:02:37 18:07:45 42° 56° (NE) 18:12:54 145.827
DANDE 26 Apr 18:05:06 18:08:07 35° 91° (E) 18:12:01 436.750
STARS 26 Apr 18:13:56 18:16:29 15° 294° (WNW) 18:18:50 437.465
RS-15 26 Apr 18:22:29 18:30:50 23° 332° (NNW) 18:39:05 29.354- 29.394
VERMONT LUNAR 26 Apr 18:33:35 18:36:55 62° 349° (NNW) 18:40:17 437.305
CUTE-I 26 Apr 18:55:31 19:00:41 55° 73° (ENE) 19:05:54 437.470
ISS 26 Apr 18:57:30 19:00:34 38° 34° (NE) 19:03:39 145.825
CUSAT 1 26 Apr 19:01:46 19:04:59 27° 291° (WNW) 19:08:59 437.405
Cubesat XI-IV 26 Apr 19:05:20 19:10:37 69° 75° (ENE) 19:15:56 437.490
PHONESAT 2.4 26 Apr 19:11:42 19:15:17 77° 344° (NNW) 19:18:54 2401.200-2431.200
AUBIESAT-1 26 Apr 19:15:08 19:16:38 12° 93° (E) 19:18:19 437.475
MOZHAYETS 4 26 Apr 19:31:37 19:35:02 20° 292° (WNW) 19:38:19
CUBESAT XI-V 26 Apr 19:33:12 19:37:16 31° 96° (E) 19:41:23 437.345
PRISM 26 Apr 19:39:51 19:42:43 19° 94° (E) 19:45:42 437.425
PCSat 26 Apr 19:46:36 19:50:57 24° 252° (WSW) 19:55:10 145.827
Cosmos 2499 26 Apr 19:48:21 19:57:17 85° 279° (W) 20:05:59 435.465 / 435.565
DANDE 26 Apr 19:50:56 19:52:04 11° 300° (WNW) 19:53:01 436.750
GONETS M04 26 Apr 19:51:53 19:57:20 17° 299° (WNW) 20:02:17
SO-50 26 Apr 19:53:13 19:55:29 13° 40° (NE) 19:57:57 436.795
STRAND 1 26 Apr 20:04:48 20:09:15 31° 96° (E) 20:13:47 437.568
M-CUBED/EXP-1 PRIME 26 Apr 20:06:25 20:10:32 65° 105° (ESE) 20:14:17 437.505
VERMONT LUNAR 26 Apr 20:11:19 20:14:38 51° 5° (N) 20:17:57 437.305
BRITE-PL 26 Apr 20:16:22 20:19:04 17° 68° (ENE) 20:21:58 437.365/2234.400
HO-68 26 Apr 20:29:32 20:35:23 29° 63° (ENE) 20:41:25 435.675
CANX-2 26 Apr 20:30:38 20:32:33 13° 67° (ENE) 20:34:41 2200.000
DOVE 4 26 Apr 20:31:34 20:32:25 11° 64° (ENE) 20:33:32 437.250
ISS 26 Apr 20:34:23 20:36:45 18° 229° (SW) 20:39:04 145.825
CUTE-I 26 Apr 20:37:45 20:41:11 17° 269° (W) 20:44:22 437.470
CUTE 1.7 + AOD 2 26 Apr 20:39:09 20:41:29 15° 67° (ENE) 20:43:59 437.475
RS-15 26 Apr 20:42:58 20:49:09 16° 8° (N) 20:55:38 29.354- 29.394
AUBIESAT-1 26 Apr 20:47:57 20:51:51 42° 292° (WNW) 20:55:25 437.475
Cubesat XI-IV 26 Apr 20:48:49 20:51:20 13° 271° (W) 20:53:31 437.490
PHONESAT 2.4 26 Apr 20:50:14 20:53:45 50° 2° (N) 20:57:16 2401.200-2431.200
CINEMA 3 26 Apr 21:06:23 21:08:27 14° 65° (ENE) 21:10:47 145.822/145.860
CUBESAT XI-V 26 Apr 21:10:54 21:14:35 23° 291° (WNW) 21:18:10 437.345
PRISM 26 Apr 21:14:39 21:18:15 29° 289° (WNW) 21:21:47 437.425
COMPASS 1 26 Apr 21:26:34 21:30:21 33° 72° (ENE) 21:34:11 437.405
SO-50 26 Apr 21:31:52 21:36:51 86° 59° (ENE) 21:41:45 436.795
GOMX 1 26 Apr 21:34:32 21:38:43 87° 83° (E) 21:43:07 467.674
DELFI C3 26 Apr 21:38:22 21:40:04 13° 67° (ENE) 21:41:57 145.870
STRAND 1 26 Apr 21:44:03 21:48:24 28° 291° (WNW) 21:52:39 437.568
M-CUBED/EXP-1 PRIME 26 Apr 21:44:16 21:44:47 10° 302° (WNW) 21:45:05 437.505
YUBILEINY 26 Apr 21:44:50 21:51:29 25° 67° (ENE) 21:58:25 435.215
Cosmos 2499 26 Apr 21:46:21 21:51:50 17° 298° (WNW) 21:56:43 435.465 / 435.565
VERMONT LUNAR 26 Apr 21:48:49 21:52:11 65° 202° (SSW) 21:55:31 437.305
Oscar 11 26 Apr 21:49:24 21:52:53 25° 70° (ENE) 21:56:28 145.826/435.025
SEEDS 26 Apr 21:53:20 21:57:38 87° 72° (ENE) 22:01:55 437.485
BRITE-PL 26 Apr 21:53:39 21:57:24 33° 264° (W) 22:01:15 437.365/2234.400
ZACube-1 26 Apr 21:53:51 21:56:16 15° 67° (ENE) 21:58:54 437.345
CANX-2 26 Apr 22:03:53 22:08:05 51° 261° (W) 22:12:19 2200.000
DOVE 4 26 Apr 22:05:26 22:09:38 64° 260° (W) 22:14:03 437.250
AAUSAT CUBESAT 2 26 Apr 22:07:41 22:11:55 89° 78° (ENE) 22:16:10 437.432
CUTE 1.7 + AOD 2 26 Apr 22:12:56 22:17:03 44° 262° (W) 22:21:12 437.475
HO-68 26 Apr 22:15:48 22:22:48 52° 260° (W) 22:29:48 435.675
DX 1 26 Apr 22:25:20 22:28:32 21° 69° (ENE) 22:31:50 434.975-435.025
PHONESAT 2.4 26 Apr 22:28:34 22:32:09 86° 199° (SSW) 22:35:44 2401.200-2431.200
CUBEBUG 2 26 Apr 22:32:03 22:36:20 62° 75° (ENE) 22:40:50 437.445
CINEMA 3 26 Apr 22:41:00 22:45:12 52° 261° (W) 22:49:38 145.822/145.860
UWE-3 26 Apr 22:55:36 22:59:57 87° 257° (WSW) 23:04:28 435.000/436.395/437.385
RS-15 26 Apr 22:56:19 23:06:29 36° 41° (NE) 23:17:16 29.354- 29.394
O/OREOS (USA 219) 26 Apr 22:57:00 23:01:31 64° 108° (ESE) 23:06:03 437.305
FUNcube-1 26 Apr 23:01:57 23:06:16 86° 77° (ENE) 23:10:45 145.935
COMPASS 1 26 Apr 23:03:09 23:06:09 18° 268° (W) 23:09:02 437.405
ESTCUBE 1 26 Apr 23:03:36 23:05:47 14° 66° (ENE) 23:08:11 437.505/2401.250
UKube-1 26 Apr 23:05:33 23:09:46 56° 74° (ENE) 23:14:00 .
DELFI C3 26 Apr 23:10:53 23:14:50 47° 261° (W) 23:18:48 145.870
HUMSAT D 26 Apr 23:13:18 23:17:24 54° 75° (ENE) 23:21:37 437.325/437.525
Oscar 11 26 Apr 23:25:17 23:28:59 26° 265° (W) 23:32:38 145.826/435.025
TIGRISAT 26 Apr 23:25:24 23:28:38 19° 92° (E) 23:31:59 435.000
Cosmos 2491 26 Apr 23:27:17 23:35:45 60° 92° (E) 23:44:20 435.465 / 435.565
VERMONT LUNAR 26 Apr 23:27:33 23:29:16 13° 215° (SW) 23:30:53 437.305
ZACube-1 26 Apr 23:28:05 23:32:15 46° 262° (W) 23:36:33 437.345
UNISAT 6 26 Apr 23:30:01 23:33:35 22° 93° (E) 23:37:13 437.425
VELOX 1 26 Apr 23:36:09 23:40:27 58° 74° (ENE) 23:44:47 145.980
CUBEBUG 1 26 Apr 23:38:37 23:42:15 28° 71° (ENE) 23:45:58 437.445
YUBILEINY 26 Apr 23:40:29 23:49:08 67° 267° (W) 23:57:41 435.215
DUCHIFAT 1 26 Apr 23:46:35 23:48:38 14° 91° (E) 23:50:54 145.980
POLYITAN 1 26 Apr 23:46:55 23:49:13 15° 91° (E) 23:51:43 437.675
50 SAT 26 Apr 23:51:43 23:55:43 84° 257° (WSW) 23:59:46 437.505
AISAT 26 Apr 23:54:27 23:58:50 83° 255° (WSW) 00:03:16 437.250
DX 1 27 Apr 00:00:46 00:04:37 31° 263° (W) 00:08:27 434.975-435.025
QB50P1 27 Apr 00:03:50 00:07:11 22° 94° (E) 00:10:37 145.935-145.965
PHONESAT 2.4 27 Apr 00:07:22 00:10:07 20° 213° (SSW) 00:12:48 2401.200-2431.200
ANTELSAT 27 Apr 00:11:19 00:16:00 63° 101° (E) 00:20:35 437.575/2403.000
CUBEBUG 2 27 Apr 00:12:51 00:13:37 10° 273° (W) 00:14:03 437.445
TISAT 1 27 Apr 00:19:58 00:22:27 16° 68° (ENE) 00:25:06 437.305
QB50P2 27 Apr 00:29:48 00:33:58 46° 99° (E) 00:38:07 145.880/145.840
ESTCUBE 1 27 Apr 00:37:51 00:42:16 53° 260° (W) 00:46:41 437.505/2401.250
O/OREOS (USA 219) 27 Apr 00:39:16 00:41:27 13° 306° (NW) 00:43:27 437.305
UKube-1 27 Apr 00:44:57 00:46:20 11° 270° (W) 00:47:26 .
NANOSAT C BR1 27 Apr 00:46:56 00:51:14 73° 102° (ESE) 00:55:30 145.865
POPSAT HIP 1 27 Apr 00:50:42 00:55:02 81° 102° (ESE) 00:59:20 437.405
HUMSAT D 27 Apr 00:52:16 00:53:37 11° 271° (W) 00:54:41 437.325/437.525
SPROUT 27 Apr 00:53:37 00:57:44 49° 74° (ENE) 01:01:54 437.525
TIGRISAT 27 Apr 01:01:11 01:05:34 39° 288° (WNW) 01:09:51 435.000
UNISAT 6 27 Apr 01:06:12 01:10:27 34° 289° (WNW) 01:14:35 437.425
BUGSAT 1 27 Apr 01:08:27 01:12:38 90° 130° (SE) 01:16:50 437.445
RS-15 27 Apr 01:08:27 01:20:02 73° 244° (WSW) 01:32:03 29.354- 29.394
CUBEBUG 1 27 Apr 01:15:10 01:18:37 22° 266° (W) 01:22:00 437.445
VELOX 1 27 Apr 01:16:05 01:17:28 11° 271° (W) 01:18:34 145.980
DUCHIFAT 1 27 Apr 01:20:38 01:24:45 45° 286° (WNW) 01:28:49 145.980
POLYITAN 1 27 Apr 01:21:17 01:25:23 43° 287° (WNW) 01:29:28 437.675
Cosmos 2491 27 Apr 01:25:57 01:33:15 28° 292° (WNW) 01:40:20 435.465 / 435.565
Cosmos 2504 27 Apr 01:26:25 01:34:17 60° 78° (ENE) 01:41:36 435.465 / 435.565
BEESAT 27 Apr 01:31:18 01:34:21 18° 67° (ENE) 01:37:34 436.000
SWISSCUBE 27 Apr 01:33:41 01:37:04 20° 67° (ENE) 01:40:36 437.505
QB50P1 27 Apr 01:39:23 01:43:03 28° 289° (WNW) 01:46:40 145.935-145.965
